• In Deutschland
  • Länderverzeichnis
  • Für 7 Tage
  • Wassertemperatur
  • Satellitenkarten
  • Wetterkarte
  • Widgets
  • user-avatar
    Anmelden

    Stündliche Wetter Michurins'ke

    Heute, 19 September, Mittwoch

    Zeit Temperatur Niederschläge Wind Luftdruck Luftfeuchtigkeit
    00:00 +14°C° 0 mm 3 m/S 748 mmHg 76%
    01:00 +14°C° 0 mm 3 m/S 748 mmHg 79%
    02:00 +14°C° 0 mm 2 m/S 748 mmHg 81%
    03:00 +14°C° 0 mm 2 m/S 748 mmHg 83%
    04:00 +13°C° 0 mm 2 m/S 748 mmHg 85%
    05:00 +13°C° 0 mm 2 m/S 748 mmHg 86%
    06:00 +15°C° 0 mm 2 m/S 749 mmHg 80%
    07:00 +16°C° 0 mm 2 m/S 749 mmHg 73%
    08:00 +18°C° 0 mm 2 m/S 749 mmHg 65%
    09:00 +19°C° 0 mm 2 m/S 749 mmHg 59%
    10:00 +21°C° 0 mm 3 m/S 749 mmHg 52%
    11:00 +24°C° 0 mm 3 m/S 749 mmHg 46%
    12:00 +24°C° 0 mm 3 m/S 749 mmHg 44%
    13:00 +25°C° 0 mm 4 m/S 749 mmHg 41%
    14:00 +26°C° 0 mm 4 m/S 749 mmHg 39%
    15:00 +25°C° 0 mm 3 m/S 749 mmHg 42%
    16:00 +24°C° 0 mm 3 m/S 749 mmHg 45%
    17:00 +23°C° 0 mm 2 m/S 748 mmHg 48%
    18:00 +21°C° 0 mm 2 m/S 748 mmHg 51%
    19:00 +19°C° 0 mm 2 m/S 748 mmHg 55%
    20:00 +18°C° 0 mm 2 m/S 748 mmHg 58%
    21:00 +18°C° 0 mm 2 m/S 749 mmHg 60%
    22:00 +17°C° 0 mm 2 m/S 749 mmHg 62%
    23:00 +17°C° 0 mm 2 m/S 749 mmHg 64%

    Morgen, 20 September, Donnerstag

    Zeit Temperatur Niederschläge Wind Luftdruck Luftfeuchtigkeit
    00:00 +16°C° 0 mm 2 m/S 749 mmHg 66%
    01:00 +16°C° 0 mm 2 m/S 749 mmHg 68%
    02:00 +16°C° 0 mm 2 m/S 749 mmHg 70%
    03:00 +15°C° 0 mm 2 m/S 748 mmHg 71%
    04:00 +15°C° 0 mm 2 m/S 748 mmHg 72%
    05:00 +15°C° 0 mm 2 m/S 748 mmHg 74%
    06:00 +16°C° 0 mm 3 m/S 748 mmHg 69%
    07:00 +18°C° 0 mm 3 m/S 748 mmHg 64%
    08:00 +20°C° 0 mm 3 m/S 749 mmHg 60%
    09:00 +21°C° 0 mm 3 m/S 748 mmHg 55%
    10:00 +23°C° 0 mm 4 m/S 748 mmHg 50%
    11:00 +26°C° 0 mm 4 m/S 748 mmHg 45%
    12:00 +27°C° 0 mm 4 m/S 748 mmHg 43%
    13:00 +27°C° 0 mm 4 m/S 748 mmHg 41%
    14:00 +28°C° 0 mm 4 m/S 748 mmHg 40%
    15:00 +27°C° 0 mm 3 m/S 747 mmHg 44%
    16:00 +26°C° 0 mm 3 m/S 747 mmHg 47%
    17:00 +25°C° 0 mm 2 m/S 747 mmHg 51%
    18:00 +23°C° 0 mm 2 m/S 747 mmHg 55%
    19:00 +21°C° 0 mm 2 m/S 747 mmHg 60%
    20:00 +20°C° 0 mm 2 m/S 747 mmHg 64%
    21:00 +19°C° 0 mm 2 m/S 747 mmHg 66%
    22:00 +19°C° 0 mm 2 m/S 747 mmHg 69%
    23:00 +19°C° 0 mm 1 m/S 747 mmHg 71%

    übermorgen, 21 September, Freitag

    Zeit Temperatur Niederschläge Wind Luftdruck Luftfeuchtigkeit
    00:00 +19°C° 0 mm 1 m/S 748 mmHg 73%
    01:00 +18°C° 0 mm 1 m/S 748 mmHg 75%
    02:00 +18°C° 0 mm 1 m/S 748 mmHg 78%
    03:00 +18°C° 0 mm 1 m/S 748 mmHg 80%
    04:00 +16°C° 0 mm 1 m/S 748 mmHg 82%
    05:00 +16°C° 0 mm 1 m/S 748 mmHg 84%
    06:00 +19°C° 0 mm 1 m/S 748 mmHg 79%
    07:00 +20°C° 0 mm 1 m/S 748 mmHg 74%
    08:00 +22°C° 0 mm 1 m/S 749 mmHg 69%
    09:00 +23°C° 0 mm 1 m/S 749 mmHg 62%
    10:00 +25°C° 0 mm 1 m/S 749 mmHg 56%
    11:00 +27°C° 0 mm 1 m/S 749 mmHg 50%
    12:00 +27°C° 0 mm 1 m/S 749 mmHg 46%
    13:00 +28°C° 0 mm 1 m/S 748 mmHg 42%
    14:00 +28°C° 0 mm 1 m/S 748 mmHg 39%
    15:00 +27°C° 0 mm 1 m/S 748 mmHg 41%
    16:00 +27°C° 0 mm 1 m/S 748 mmHg 44%
    17:00 +26°C° 0 mm 1 m/S 748 mmHg 46%
    18:00 +24°C° 0 mm 1 m/S 748 mmHg 49%
    19:00 +23°C° 0 mm 1 m/S 748 mmHg 51%
    20:00 +21°C° 0 mm 2 m/S 748 mmHg 53%
    21:00 +20°C° 0 mm 2 m/S 748 mmHg 55%
    22:00 +20°C° 0 mm 2 m/S 748 mmHg 56%
    23:00 +19°C° 0 mm 2 m/S 748 mmHg 57%

    22 September, Samstag

    Zeit Temperatur Niederschläge Wind Luftdruck Luftfeuchtigkeit
    00:00 +19°C° 0 mm 2 m/S 748 mmHg 58%
    01:00 +18°C° 0 mm 2 m/S 748 mmHg 59%
    02:00 +18°C° 0 mm 2 m/S 748 mmHg 59%
    03:00 +17°C° 0 mm 2 m/S 748 mmHg 60%
    04:00 +17°C° 0 mm 2 m/S 748 mmHg 60%
    05:00 +17°C° 0 mm 2 m/S 748 mmHg 60%
    06:00 +18°C° 0 mm 2 m/S 748 mmHg 57%
    07:00 +20°C° 0 mm 3 m/S 748 mmHg 53%
    08:00 +21°C° 0 mm 3 m/S 748 mmHg 49%
    09:00 +24°C° 0 mm 3 m/S 748 mmHg 45%
    10:00 +26°C° 0 mm 3 m/S 748 mmHg 40%
    11:00 +28°C° 0 mm 3 m/S 747 mmHg 36%
    12:00 +28°C° 0 mm 3 m/S 747 mmHg 34%
    13:00 +29°C° 0 mm 3 m/S 747 mmHg 32%
    14:00 +29°C° 0 mm 3 m/S 746 mmHg 30%
    15:00 +28°C° 0 mm 3 m/S 746 mmHg 33%
    16:00 +27°C° 0 mm 2 m/S 746 mmHg 36%
    17:00 +26°C° 0 mm 2 m/S 745 mmHg 39%
    18:00 +25°C° 0 mm 2 m/S 745 mmHg 40%
    19:00 +23°C° 0 mm 2 m/S 745 mmHg 42%
    20:00 +21°C° 0 mm 3 m/S 745 mmHg 44%
    21:00 +20°C° 0 mm 3 m/S 745 mmHg 44%
    22:00 +20°C° 0 mm 3 m/S 745 mmHg 45%
    23:00 +19°C° 0 mm 3 m/S 745 mmHg 46%

    23 September, Sonntag

    Zeit Temperatur Niederschläge Wind Luftdruck Luftfeuchtigkeit
    00:00 +19°C° 0 mm 3 m/S 745 mmHg 47%
    01:00 +19°C° 0 mm 3 m/S 744 mmHg 48%
    02:00 +18°C° 0 mm 3 m/S 744 mmHg 49%
    03:00 +18°C° 0 mm 3 m/S 744 mmHg 51%
    04:00 +18°C° 0 mm 3 m/S 743 mmHg 54%
    05:00 +17°C° 0 mm 3 m/S 743 mmHg 56%
    06:00 +19°C° 0 mm 4 m/S 743 mmHg 54%
    07:00 +20°C° 0 mm 4 m/S 742 mmHg 52%
    08:00 +21°C° 0 mm 5 m/S 742 mmHg 50%
    09:00 +23°C° 0 mm 6 m/S 742 mmHg 44%
    10:00 +26°C° 0 mm 6 m/S 742 mmHg 39%
    11:00 +27°C° 0 mm 7 m/S 741 mmHg 34%
    12:00 +26°C° 0 mm 7 m/S 741 mmHg 39%
    13:00 +24°C° 0 mm 8 m/S 741 mmHg 43%
    14:00 +22°C° 0 mm 8 m/S 741 mmHg 47%
    15:00 +18°C° 0.8 mm 8 m/S 742 mmHg 58%
    16:00 +13°C° 0.8 mm 8 m/S 742 mmHg 69%
    17:00 +9°C° 0.8 mm 7 m/S 743 mmHg 79%
    18:00 +9°C° 0.1 mm 6 m/S 743 mmHg 79%
    19:00 +9°C° 0.1 mm 6 m/S 744 mmHg 80%
    20:00 +9°C° 0.1 mm 5 m/S 745 mmHg 80%
    21:00 +8°C° 0 mm 4 m/S 745 mmHg 81%
    22:00 +8°C° 0 mm 4 m/S 745 mmHg 83%
    23:00 +9°C° 0 mm 3 m/S 745 mmHg 84%

    24 September, Montag

    Zeit Temperatur Niederschläge Wind Luftdruck Luftfeuchtigkeit
    00:00 +8°C° 0 mm 3 m/S 746 mmHg 86%
    01:00 +8°C° 0 mm 3 m/S 746 mmHg 87%
    02:00 +8°C° 0 mm 2 m/S 746 mmHg 89%
    03:00 +8°C° 0 mm 2 m/S 746 mmHg 90%
    04:00 +7°C° 0 mm 2 m/S 746 mmHg 91%
    05:00 +7°C° 0 mm 2 m/S 746 mmHg 92%
    06:00 +8°C° 0 mm 2 m/S 747 mmHg 85%
    07:00 +10°C° 0 mm 2 m/S 747 mmHg 78%
    08:00 +12°C° 0 mm 2 m/S 747 mmHg 71%
    09:00 +14°C° 0 mm 2 m/S 747 mmHg 62%
    10:00 +16°C° 0 mm 2 m/S 747 mmHg 52%
    11:00 +18°C° 0 mm 1 m/S 747 mmHg 43%
    12:00 +19°C° 0 mm 1 m/S 747 mmHg 39%
    13:00 +20°C° 0 mm 1 m/S 747 mmHg 35%
    14:00 +19°C° 0 mm 2 m/S 746 mmHg 32%
    15:00 +20°C° 0 mm 1 m/S 746 mmHg 34%
    16:00 +19°C° 0 mm 1 m/S 746 mmHg 36%
    17:00 +18°C° 0 mm 1 m/S 746 mmHg 38%
    18:00 +16°C° 0 mm 2 m/S 746 mmHg 39%
    19:00 +15°C° 0 mm 2 m/S 746 mmHg 40%
    20:00 +14°C° 0 mm 2 m/S 746 mmHg 41%
    21:00 +14°C° 0 mm 2 m/S 746 mmHg 42%
    22:00 +13°C° 0 mm 2 m/S 745 mmHg 43%
    23:00 +12°C° 0 mm 3 m/S 745 mmHg 43%
    Mehr zeigen